Velovelo
Português Nederlands 日本語 中文
Español English čeština slovenčina
русский italiano polski norsk
français Deutsch svenska عربي
 
 poprzednia strona
 Wyślij znajomemu
 Aby wydrukować
 ---> La Charly B’ 2013 : Résultats du 115 km

Cl...NomprénomCatC.cTemps.......Ecart...
1 HUDREY Florian F 1 03:22:34
2 LAVIEU Antoine F 2 03:22:36 00:00:02
3 PALUAN ANDREA F 3 03:25:10 00:02:36
4 POLVERONI DAVID F 4 03:25:11 00:02:37
5 VERSOS Rolland F 5 03:26:27 00:03:53
6 LEBRUN NICOLAS H 1 03:26:35 00:04:01
7 CULIEZ BENOIT F 6 03:28:03 00:05:29
8 BLANC FRANCOIS XAVIER H 2 03:28:03 00:05:29
9 ALBIZZATI SEBASTIEN G 1 03:28:04 00:05:30
10 PIVA Diego F 7 03:28:05 00:05:31
11 BOUSQUET Pascal G 2 03:28:05 00:05:31
12 DANGELO NICOLA F 8 03:28:06 00:05:32
13 CHOCOL MICHEL G 3 03:28:09 00:05:35
14 MATHOU PAUL F 9 03:28:23 00:05:49
15 DASTOT Jeremie F 10 03:32:35 00:10:01
16 BAUDOIN LIONEL F 11 03:32:39 00:10:05
17 CHEILAN LUC F 12 03:34:58 00:12:24
18 CONTE THEO F 13 03:34:58 00:12:24
19 AYRAL EMMANUEL G 4 03:35:00 00:12:26
20 CALISTRI Maria F 14 03:35:00 00:12:26
21 Miquet Roger H 3 03:37:29 00:14:55
22 LEMASSON Franck H 4 03:37:32 00:14:58
23 GAETHOFS FREDERIC G 5 03:37:39 00:15:05
24 GARNERO Antonio G 6 03:40:18 00:17:44
25 HENNEBELLE Anthonio F 15 03:40:19 00:17:45
26 ICARD MICHEL J 1 03:40:19 00:17:45
27 SCHUSTER Hugues H 5 03:40:19 00:17:45
28 BECARUD Thomas F 16 03:40:19 00:17:45
29 RIDEZ ERIC H 6 03:40:19 00:17:45
30 ROVERA RENE H 7 03:40:19 00:17:45
31 CORRADINI SYLVAIN F 17 03:41:29 00:18:55
32 MEUNIER Didier J 2 03:42:54 00:20:20
33 MELA ERIC H 8 03:42:56 00:20:22
34 BOUDEWEEL FREDERIC H 9 03:43:02 00:20:28
35 GIODANENGO Olivier G 7 03:44:02 00:21:28
36 RIVIERE PHILIPPE H 10 03:44:02 00:21:28
37 BIANCALANA CHRISTOPHE G 8 03:44:02 00:21:28
38 BLACKIE ANTON F 18 03:44:03 00:21:29
39 DELAFAITE DAVID G 9 03:44:03 00:21:29
40 MOLINARO Frank H 11 03:44:04 00:21:30
41 FLOREANI LAURENT F 19 03:44:04 00:21:30
42 MUSSILLON FABIEN F 20 03:44:05 00:21:31
43 BACCILI Alexandre G 10 03:44:05 00:21:31
44 BOUCOURT Guillaume G 11 03:44:08 00:21:34
45 GUILLOCHON ARNAUD G 12 03:44:08 00:21:34
46 CLAUSSE LAURENT G 13 03:44:09 00:21:35
47 Jaguelin Christophe G 14 03:44:09 00:21:35
48 OUTTERS Beno¯t F 21 03:44:12 00:21:38
49 FANGET Mikael F 22 03:44:14 00:21:40
50 GUGLIERO CHRISTOPHE H 12 03:44:14 00:21:40
51 HECK FREDERIC H 13 03:44:53 00:22:19
52 MILLO Jean Pierre H 14 03:44:54 00:22:20
53 AIRAUT CHRISTOPHE G 15 03:44:55 00:22:21
54 CHIAW Jonathan F 23 03:46:54 00:24:20
55 SERRA PAOLO H 15 03:46:55 00:24:21
56 DELPIERRE victor F 24 03:46:58 00:24:24
57 BUMAT VINCENT G 16 03:48:55 00:26:21
58 ANGELOTTI JEAN MARC J 3 03:48:55 00:26:21
59 BOULANGER Damien F 25 03:48:55 00:26:21
60 vaulot christophe H 16 03:48:56 00:26:22
61 ROBIN JACKIE K 1 03:48:57 00:26:23
62 Ronca Marc H 17 03:48:57 00:26:23
63 CHESNAIS JULIEN F 26 03:48:59 00:26:25
64 CABANTOUS Herve F 27 03:49:00 00:26:26
65 TUFFET PHILIPPE G 17 03:49:03 00:26:29
66 BRANCALEONI Pierre G 18 03:53:30 00:30:56
67 COURAULT christophe H 18 03:53:30 00:30:56
68 BROWN PIERS H 19 03:53:31 00:30:57
69 RAFFIN DIDIER K 2 03:53:31 00:30:57
70 MARAGA Claude J 4 03:53:38 00:31:04
71 CHABERT THIERRY J 5 03:54:42 00:32:08
72 CASTELLI CHARLES H 20 03:54:42 00:32:08
73 PASTORINO REMI F 28 03:54:43 00:32:09
74 PACTEAU Raphael F 29 03:54:43 00:32:09
75 DEBOS JEAN CHRISTOPHE H 21 03:54:43 00:32:09
76 GALEOTE HUGO G 19 03:54:43 00:32:09
77 RABUSSIER OLIVIER G 20 03:54:43 00:32:09
78 DESROCHES Thomas G 21 03:54:44 00:32:10
79 BALAUDO Davide H 22 03:54:44 00:32:10
80 AGNONA FRANCK H 23 03:54:44 00:32:10
81 CLERC SERGE J 6 03:54:47 00:32:13
82 BOYER CLAUDE L 1 03:58:40 00:36:06
83 GALAME Yuan H 24 03:58:41 00:36:07
84 CLEMENT LAURENT H 25 03:58:42 00:36:08
85 BOUDOT ROMAIN G 22 03:59:30 00:36:56
86 JAGLINE PATRICH H 26 03:59:30 00:36:56
87 COLON REMI G 23 03:59:30 00:36:56
88 GOMES jÚrÚmie G 24 03:59:31 00:36:57
89 PALLANCA CEDRIC G 25 04:00:03 00:37:29
90 BARRAUD Thomas H 27 04:00:04 00:37:30
91 MARTIN Guy J 7 04:00:04 00:37:30
92 NOSMAS Julien G 26 04:00:04 00:37:30
93 ILLOVSKY PETER H 28 04:00:05 00:37:31
94 ASSAUD BERNARD J 8 04:00:06 00:37:32
95 BONNIFAIT CHRISTOPHE G 27 04:00:06 00:37:32
96 BAUDOUIN Geoffroy F 30 04:02:16 00:39:42
97 BELLANGER CHRISTOPHE F 31 04:02:29 00:39:55
98 MIR PATRICK J 9 04:02:43 00:40:09
99 MARCHAND REGIS H 29 04:02:45 00:40:11
100 ARNAULD SEBASTIEN G 28 04:03:11 00:40:37
101 CABANTOUS Pascal H 30 04:03:16 00:40:42
102 GASTAUD ERIC J 10 04:03:17 00:40:43
103 BARELLI YANN H 31 04:03:17 00:40:43
104 MAUGNIE ANDRE J 11 04:03:18 00:40:44
105 CHABANNES Bernard H 32 04:05:30 00:42:56
106 TAUTIL Philippe G 29 04:05:47 00:43:13
107 GANCHEV VASIL G 30 04:06:30 00:43:56
108 GUIEM FLORENT G 31 04:06:30 00:43:56
109 DUCHE SEBASTIEN G 32 04:06:31 00:43:57
110 PIJOURLET PATRICH H 33 04:07:32 00:44:58
111 GOMES Antonio J 12 04:07:33 00:44:59
112 MAURO Antonio H 34 04:07:33 00:44:59
113 LE BOUCHER XAVIER H 35 04:07:34 00:45:00
114 GALLAIS Philippe J 13 04:07:36 00:45:02
115 MULIN Fabien G 33 04:07:36 00:45:02
116 BERTRAND JEAN MARC H 36 04:07:36 00:45:02
117 VINH MAU Thierry J 14 04:07:42 00:45:08
118 ICART Guillaume F 32 04:08:02 00:45:28
119 BARBEAU Mathias G 34 04:09:19 00:46:45
120 MORRAGLIA THIERRY H 37 04:09:22 00:46:48
121 DAUSSE Fabien G 35 04:09:22 00:46:48
122 RIOTTEAU JOEL H 38 04:09:23 00:46:49
123 MAURIER FRANK H 39 04:09:24 00:46:50
124 Descamps David G 36 04:11:32 00:48:58
125 ANTOINE Jacques L 2 04:12:00 00:49:26
126 HUBERT HELIARD J 15 04:12:01 00:49:27
127 ROSSI RENATO K 3 04:12:01 00:49:27
128 BOULENGER CHRISTOPHE H 40 04:12:02 00:49:28
129 ALLASIA MARCEL J 16 04:12:02 00:49:28
130 LEFEVRE ANTONY G 37 04:12:03 00:49:29
131 DUNHIME Laurent H 41 04:12:05 00:49:31
132 CAVALIER PHilippe G 38 04:13:31 00:50:57
133 CLARYS VALENTIN F 33 04:13:31 00:50:57
134 TROUBRIDGE Julian J 17 04:15:11 00:52:37
135 BERANGER STEVE F 34 04:15:18 00:52:44
136 ROBBINS RICHARD J 18 04:15:18 00:52:44
137 PLAVCAN Juraj G 39 04:15:20 00:52:46
138 PEGRUM MATT G 40 04:15:21 00:52:47
139 LE MAUT FRANCOIS L 3 04:15:29 00:52:55
140 LEGRAND NICOLAS H 42 04:15:49 00:53:15
141 GUILLET SEBASTIEN H 43 04:15:49 00:53:15
142 ROUSIER Christophe H 44 04:15:50 00:53:16
143 CAMATTE GUY J 19 04:15:50 00:53:16
144 BRUZI THIERRY H 45 04:15:50 00:53:16
145 BARBERO Marco H 46 04:15:52 00:53:18
146 AUTARD Thibault F 35 04:15:55 00:53:21
147 FOURNIER JEROME J 20 04:15:56 00:53:22
148 ADAMSEN Maja A 1 04:15:58 00:53:24
149 DUCHAUSSOY Olivier H 47 04:18:47 00:56:13
150 GIROUX PATRICH K 4 04:18:48 00:56:14
151 MITROTTI ISABELLA B 1 04:18:48 00:56:14
152 AEBERLI FABIEN G 41 04:19:03 00:56:29
153 SAPONARI NICOLAS G 42 04:19:04 00:56:30
154 YATES Ben J 21 04:19:05 00:56:31
155 MOMBOISSE OLIVIER H 48 04:21:59 00:59:25
156 ABADIE LAURENT H 49 04:22:27 00:59:53
157 GUIOT vincent G 43 04:22:28 00:59:54
158 BERTETTO JONATHAN F 36 04:22:28 00:59:54
159 MASCCOTA MICHEL H 50 04:22:30 00:59:56
160 BARDOTE carlos H 51 04:22:31 00:59:57
161 PAYET FREDERIC H 52 04:22:32 00:59:58
162 PUIG STEPHANE G 44 04:22:33 00:59:59
163 EMANI DAVID G 45 04:22:34 01:00:00
164 STROYBERG SUSANE B 2 04:22:34 01:00:00
165 COMBES ALEXANDRE F 37 04:22:35 01:00:01
166 DELAGRANGE antoine J 22 04:22:35 01:00:01
167 LOUTREL DAVID G 46 04:22:38 01:00:04
168 BARRANCA Frederic G 47 04:22:38 01:00:04
169 MATTEUCCI stefano H 53 04:23:57 01:01:23
170 LUIGI ASTORRI H 1 04:23:58 01:01:24
171 LUIGI ASTORRI H 54 04:23:58 01:01:24
172 COCCO MARIO J 23 04:24:02 01:01:28
173 COSTE REMY H 55 04:24:02 01:01:28
174 MARTIN DIDIER J 24 04:24:03 01:01:29
175 ROMOR Laurent H 56 04:24:03 01:01:29
176 STACUL LAURENT G 48 04:24:05 01:01:31
177 LIGNEUL Guillaume G 49 04:25:41 01:03:07
178 MONVOISIN LUDOVIC G 50 04:25:41 01:03:07
179 MASSONE MAURO G 51 04:25:43 01:03:09
180 MUZIO OLIVIER J 25 04:27:42 01:05:08
181 FOISSY KAREN A 2 04:27:45 01:05:11
182 LOPEZ Michael G 52 04:27:45 01:05:11
183 de palma francesco G 53 04:27:47 01:05:13
184 THONNON Alexandre G 54 04:27:48 01:05:14
185 SAORINE ERIC K 5 04:27:51 01:05:17
186 CARAMELLO CLAUDE H 57 04:27:51 01:05:17
187 SOUBERBIELLE Jean Bernard J 26 04:28:22 01:05:48
188 BOZZO Pietro H 58 04:31:18 01:08:44
189 DAVID ROMAIN G 55 04:31:18 01:08:44
190 FERESIN FREDERIC H 59 04:31:20 01:08:46
191 ZUNINO Paolo H 60 04:31:20 01:08:46
192 SABATHE Jean Marie J 27 04:32:25 01:09:51
193 PIOVANO PHILIPPE J 28 04:32:25 01:09:51
194 RUCART ALEXANDRE G 56 04:32:26 01:09:52
195 LUGAND Francois H 61 04:34:47 01:12:13
196 SAEZ ALEXANDRE G 57 04:35:06 01:12:32
197 LANOIS Laurent H 62 04:35:38 01:13:04
198 RICARD BRUNO J 29 04:36:01 01:13:27
199 LEAL JOSE G 58 04:36:04 01:13:30
200 MAZAN Vincent G 59 04:36:09 01:13:35
201 SMORTO PATRICE J 30 04:37:03 01:14:29
202 VOUILLON JEAN-PHILIPPE H 63 04:37:04 01:14:30
203 BARRERE ALEXANDRE H 64 04:37:04 01:14:30
204 ANTOINE GREGOIRE CHRISTIAN J 31 04:37:59 01:15:25
205 SIMONCELLI STEPHANE H 65 04:37:59 01:15:25
206 DUPORT HERVE H 66 04:38:00 01:15:26
207 CAVALLERI Andrea L 4 04:38:00 01:15:26
208 JACOB JEAN CHRISTIAN H 67 04:38:00 01:15:26
209 PARISOT JEAN JACQUES H 68 04:38:02 01:15:28
210 CHASSAGNARD PHILIPPE J 32 04:38:03 01:15:29
211 COMBE PASCAL H 69 04:38:04 01:15:30
212 GOEUSSE Francois G 60 04:38:05 01:15:31
213 WESSE SANDRA B 3 04:38:06 01:15:32
214 LABOUZ PHILIPPE H 70 04:42:37 01:20:03
215 NOIZET ERIIK H 71 04:42:46 01:20:12
216 MONNIER Jean luc L 5 04:42:46 01:20:12
217 DURAND CHRISTOPHE H 72 04:43:10 01:20:36
218 ESQUIROL PHILIPPE J 33 04:44:11 01:21:37
219 Mumann Philippe K 6 04:44:11 01:21:37
220 FROT COUTAZ LAURENT G 61 04:44:11 01:21:37
221 MARRO HELENE B 4 04:44:13 01:21:39
222 ROCA SEBASTIEN G 62 04:46:57 01:24:23
223 GUIEM GERARD L 6 04:47:49 01:25:15
224 METAILLER MARC J 34 04:47:50 01:25:16
225 LEMUNIER NICOLAS H 73 04:48:11 01:25:37
226 CONTESSO laurent H 74 04:49:12 01:26:38
227 LOMBART PHILIPPE-JEAN H 75 04:49:12 01:26:38
228 COLLARD Gael G 63 04:49:51 01:27:17
229 CLERC DANIEL L 7 04:50:24 01:27:50
230 DUFOUR CHRISTOPHE H 76 04:50:24 01:27:50
231 OGIER NICOLAS H 77 04:50:24 01:27:50
232 MONI HERVE H 78 04:51:54 01:29:20
233 GRONDIN Herve G 64 04:54:31 01:31:57
234 LUPORINI HUBERT H 79 04:54:57 01:32:23
235 JOUANJUS ALAIN J 35 04:54:57 01:32:23
236 DANDRIA SADRO J 36 04:54:57 01:32:23
237 RENARD H 80 04:54:57 01:32:23
238 ROSSERO Jean-michel H 81 04:56:47 01:34:13
239 SAORINE LIONEL J 37 04:58:12 01:35:38
240 COSSU Alessandro G 65 04:59:54 01:37:20
241 DELECROIX Alain H 82 04:59:55 01:37:21
242 FUSINI Fabrizio H 83 05:00:46 01:38:12
243 MELISSENT RAOUL L 8 05:00:46 01:38:12
244 BREITTMAYER JEAN PHILIPPE L 9 05:00:48 01:38:14
245 CRUISE AIDAN J 38 05:00:49 01:38:15
246 GRONDIN Lilian G 66 05:00:54 01:38:20
247 GALLOIS BRUNO J 39 05:00:55 01:38:21
248 FERNANDEZ Marc H 84 05:04:25 01:41:51
249 HEFFERMAN DERMONT H 85 05:04:30 01:41:56
250 O’Shea Ian J 40 05:04:31 01:41:57
251 MASSONE ANTONIO L 10 05:04:31 01:41:57
252 COLLIN Christian G 67 05:04:32 01:41:58
253 CAILLEUX THIERRY F 38 05:04:32 01:41:58
254 ROGIER CHRISTELLE B 5 05:04:32 01:41:58
255 SCARDINO JOSEPH J 41 05:04:33 01:41:59
256 TETAZ FRANK H 86 05:04:34 01:42:00
257 MARI PHILIPPE H 87 05:04:35 01:42:01
258 POUGIN H 88 05:04:40 01:42:06
259 Jofre Sandra B 6 05:05:57 01:43:23
260 MANADIN SEBASTIEN H 89 05:08:06 01:45:32
261 MALLET Jean-marie J 42 05:08:06 01:45:32
262 FENEAU ALAIN L 11 05:08:06 01:45:32
263 DELAGRANGE Mikel G 68 05:09:21 01:46:47
264 GIORDANO DIDIER H 90 05:09:21 01:46:47
265 ESPOSITO Nassimo H 91 05:12:38 01:50:04
266 HAFFNER Georges J 43 05:14:00 01:51:26
267 ROBE ALAIN J 44 05:14:01 01:51:27
268 WIENCEK xavier G 69 05:14:02 01:51:28
269 WRIGHT DOMINIQUE J 45 05:14:03 01:51:29
270 CRISA JOSEPH J 46 05:14:03 01:51:29
271 FARGEAS JEAN MARC J 47 05:14:04 01:51:30
272 DE BIASIO BRIGITE B 7 05:14:04 01:51:30
273 BOTTARO VERONIQUE C 1 05:17:17 01:54:43
274 NOCCHI JOSE J 48 05:17:48 01:55:14
275 CLAUREL FREDERIC G 70 05:18:03 01:55:29
276 PAGET YVES L 12 05:22:11 01:59:37
277 CANSERO Valentino B 8 05:24:27 02:01:53
278 CONTICELLO Francesco H 92 05:24:27 02:01:53
279 CORBEL Georges L 13 05:24:29 02:01:55
280 RIBES CHRISTOPHE H 93 05:30:08 02:07:34
281 RIBEIL christophe G 71 05:30:14 02:07:40
282 HAILL Timothy J 49 05:32:11 02:09:37
283 PELUSO RICHARD L 14 05:33:23 02:10:49
284 BAILE LAURENT G 72 05:36:45 02:14:11
285 VERUCCHI FREDERIC G 73 05:38:16 02:15:42
286 CAMARINA ALBERT J 50 05:46:12 02:23:38
287 GOULAY ISABELLE B 9 05:46:15 02:23:41
288 AITTHAHR MOHAMED J 51 05:48:08 02:25:34

Na górę 









Na górę  
 Strefa prywatna   Prawa autorskie-Copyright: Ciśnijcie tu żeby przeczytać!